Details From LFKJ - Napoleon Bonaparte
To LFKC - St Catherine
Flight Number -
Tags generated
Created
Modified
Stats Distance 37 nm / 68 km
Max Altitude 4,500 ft / 1,372 m
Waypoints 3
Social Downloads 4
Likes 0
Share VATSIM

Download

Looking for another format? Having issues loading an existing format? Contact us
Advertisement - Login to hide

Notes

Basic altitude profile: - Ascent Rate: 700ft/min - Ascent Speed: 80kts - Cruise Altitude: 10000ft - Cruise Speed: 120kts - Descent Rate: 700ft/min - Descent Speed: 100kts

Route

LFKJ VICCO LFKC

ID Type Via Altitude Latitude Longitude Leg Dist Tot Dist Heading (true) Name
O LFKJ APT - 0 ft / 0 m 41.92289˚ 8.79959˚ - 0 nm - Napoleon Bonaparte
VICCO FIX - 4,500 ft / 1,372 m 42.13944˚ 8.81583˚ 13 nm 13 nm 3° / 3° -
O LFKC APT - 0 ft / 0 m 42.53076˚ 8.79293˚ 23 nm 36 nm 358° / 358° St Catherine

Altitude Profile

Advertisement - Login to hide

LFKJ

Details ICAO LFKJ (AJA)
Name Napoleon Bonaparte
Region France
Timezone Europe/Paris (UTC+1.0)
Stats Elevation 18 ft / 5 m (AMSL)
Location 41.922886° 8.799587°
Runways 2
Magnetic Variation 2.329° E

METAR

LFKJ 132030Z AUTO 05005KT 9999 FEW035 08/06 Q1021 TEMPO 4000 RA BKN014 OVC050

Decode

TAF

TAF LFKJ 132000Z 1321/1421 04006KT 9999 SCT030 BKN060 TEMPO 1321/1409 4000 RA BKN014 OVC050 TEMPO 1401/1412 25012G22KT

Decode

Departure Runways

ID Width Length Bearing (true) Bearing (mag) Surface Threshold Offset Overrun Length
02 180 ft / 55 m 7,899 ft / 2,408 m 24.94° 22.61° Asphalt 0 ft / 0 m 164 ft / 50 m
10 98 ft / 30 m 3,447 ft / 1,051 m 94.35° 92.02° Concrete 0 ft / 0 m 164 ft / 50 m
20 180 ft / 55 m 7,899 ft / 2,408 m 204.95° 202.62° Asphalt 745 ft / 227 m 230 ft / 70 m
28 98 ft / 30 m 3,447 ft / 1,051 m 274.36° 272.03° Concrete 213 ft / 65 m 0 ft / 0 m

LFKC

Details ICAO LFKC (CLY)
Name St Catherine
Region France
Timezone Europe/Paris (UTC+1.0)
Stats Elevation 208 ft / 63 m (AMSL)
Location 42.530762° 8.792925°
Runways 1
Magnetic Variation 2.342° E

METAR

LFKC 132030Z AUTO 20013KT 170V230 9999 FEW041 12/04 Q1018

Decode

TAF

TAF LFKC 131904Z 1319/1415 CNL

Decode

Destination Runways

ID Width Length Bearing (true) Bearing (mag) Surface Threshold Offset Overrun Length
18 131 ft / 40 m 7,596 ft / 2,315 m 179.60° 177.26° Concrete 0 ft / 0 m 0 ft / 0 m
36 131 ft / 40 m 7,596 ft / 2,315 m 359.60° 357.26° Concrete 656 ft / 200 m 0 ft / 0 m

Approach Navaids

Runway Type Ident Frequency Range Bearing (true) Bearing (mag) Slope Elevation
18 Localiser CLI 109.50 MHz 18 nm / 33 km 179.62° 177.27° - 230 ft / 70 m (AMSL)
18 DME CLI 109.50 MHz 18 nm / 33 km - - - 230 ft / 70 m (AMSL)

Popular Alternatives